AIC691 VECC-VEBN

Flight info

Callsign AIC691
Flight time 1h 2m
Altitude 38000
Route TEPAL2C TEPAL R460 GGC
Aircraft A20N/M-SDE2E3FGHIRWXY/LB1

Departure

Time 2026-04-30 08:15
Airport Netaji Subhash Chandra Bose International Airport (VECC)

Arrival

Time 2026-04-30 09:17
Airport Lal Bahadur Shastri International Airport (VEBN)
Time Latitude Longitude Altitude Speed Heading
2026-04-30 07:58 22.65003 88.44151 34 ft 0 kts 274°
2026-04-30 08:04 22.65003 88.44153 34 ft 1 kts 274°
2026-04-30 08:04 22.65002 88.44168 34 ft 2 kts 274°
2026-04-30 08:05 22.65000 88.44184 33 ft 2 kts 274°
2026-04-30 08:05 22.64999 88.44200 33 ft 2 kts 274°
2026-04-30 08:05 22.64998 88.44215 33 ft 2 kts 299°
2026-04-30 08:05 22.64986 88.44226 32 ft 2 kts 350°
2026-04-30 08:06 22.64979 88.44226 32 ft 1 kts 13°
2026-04-30 08:06 22.64974 88.44225 32 ft 0 kts
2026-04-30 08:10 22.64975 88.44225 32 ft 1 kts
2026-04-30 08:10 22.65015 88.44230 33 ft 6 kts
2026-04-30 08:11 22.65050 88.44247 34 ft 5 kts 49°
2026-04-30 08:11 22.65067 88.44282 35 ft 10 kts 65°
2026-04-30 08:11 22.65103 88.44370 33 ft 18 kts 66°
2026-04-30 08:11 22.65214 88.44427 31 ft 19 kts
2026-04-30 08:12 22.65345 88.44441 31 ft 18 kts
2026-04-30 08:12 22.65478 88.44460 30 ft 19 kts
2026-04-30 08:12 22.65617 88.44474 28 ft 20 kts
2026-04-30 08:12 22.65760 88.44492 26 ft 21 kts
2026-04-30 08:13 22.65904 88.44537 23 ft 21 kts 32°
2026-04-30 08:13 22.66035 88.44625 21 ft 22 kts 33°
2026-04-30 08:13 22.66143 88.44731 21 ft 19 kts 85°
2026-04-30 08:13 22.66135 88.44833 19 ft 9 kts 91°
2026-04-30 08:14 22.66090 88.44853 20 ft 8 kts 194°
2026-04-30 08:14 22.66017 88.44842 21 ft 25 kts 186°
2026-04-30 08:14 22.65559 88.44790 22 ft 103 kts 186°
2026-04-30 08:14 22.64611 88.44677 26 ft 164 kts 185°
2026-04-30 08:15 22.63397 88.44537 378 ft 186 kts 184°
2026-04-30 08:15 22.62059 88.44262 894 ft 207 kts 200°
2026-04-30 08:15 22.60868 88.43261 1417 ft 232 kts 231°
2026-04-30 08:15 22.60219 88.41621 2025 ft 255 kts 254°
2026-04-30 08:16 22.59838 88.39735 2811 ft 259 kts 254°
2026-04-30 08:16 22.59474 88.37817 3506 ft 265 kts 258°
2026-04-30 08:16 22.59189 88.35823 4177 ft 272 kts 259°
2026-04-30 08:16 22.58907 88.33822 4928 ft 274 kts 258°
2026-04-30 08:17 22.58606 88.31806 5734 ft 274 kts 258°
2026-04-30 08:17 22.58289 88.29771 6561 ft 275 kts 258°
2026-04-30 08:17 22.57965 88.27760 7330 ft 277 kts 259°
2026-04-30 08:17 22.57850 88.25704 8109 ft 280 kts 275°
2026-04-30 08:18 22.58364 88.23675 8935 ft 280 kts 293°
2026-04-30 08:18 22.59220 88.21802 9762 ft 280 kts 296°
2026-04-30 08:18 22.60114 88.19930 10465 ft 286 kts 296°
2026-04-30 08:18 22.61047 88.17972 10893 ft 304 kts 296°
2026-04-30 08:19 22.62034 88.15885 11411 ft 317 kts 296°
2026-04-30 08:19 22.63028 88.13773 12167 ft 320 kts 296°
2026-04-30 08:19 22.64041 88.11617 12996 ft 322 kts 296°
2026-04-30 08:19 22.65059 88.09444 13735 ft 325 kts 296°
2026-04-30 08:20 22.66072 88.07280 14463 ft 327 kts 295°
2026-04-30 08:20 22.67094 88.05093 15164 ft 330 kts 295°
2026-04-30 08:20 22.68134 88.02864 15845 ft 333 kts 295°
2026-04-30 08:20 22.69177 88.00623 16490 ft 335 kts 295°
2026-04-30 08:21 22.70228 87.98364 17112 ft 338 kts 295°
2026-04-30 08:21 22.71290 87.96083 17725 ft 341 kts 295°
2026-04-30 08:21 22.72356 87.93786 18318 ft 345 kts 295°
2026-04-30 08:21 22.73437 87.91455 18868 ft 349 kts 295°
2026-04-30 08:22 22.74525 87.89114 19428 ft 353 kts 295°
2026-04-30 08:22 22.75638 87.86716 20006 ft 356 kts 295°
2026-04-30 08:22 22.76746 87.84328 20559 ft 360 kts 295°
2026-04-30 08:22 22.77874 87.81898 21108 ft 364 kts 295°
2026-04-30 08:23 22.79023 87.79421 21650 ft 368 kts 295°
2026-04-30 08:23 22.80170 87.76945 22214 ft 371 kts 295°
2026-04-30 08:23 22.81330 87.74436 22739 ft 375 kts 295°
2026-04-30 08:23 22.82531 87.71932 23226 ft 379 kts 297°
2026-04-30 08:24 22.83873 87.69478 23740 ft 383 kts 300°
2026-04-30 08:24 22.85362 87.67041 24268 ft 386 kts 302°
2026-04-30 08:24 22.86867 87.64623 24730 ft 389 kts 301°
2026-04-30 08:24 22.88368 87.62215 25189 ft 393 kts 302°
2026-04-30 08:25 22.89920 87.59722 25662 ft 395 kts 301°
2026-04-30 08:25 22.91463 87.57243 26127 ft 398 kts 301°
2026-04-30 08:25 22.93004 87.54764 26574 ft 400 kts 301°
2026-04-30 08:25 22.94552 87.52271 26979 ft 404 kts 301°
2026-04-30 08:26 22.96133 87.49723 27402 ft 406 kts 301°
2026-04-30 08:26 22.97710 87.47178 27805 ft 409 kts 301°
2026-04-30 08:26 22.99298 87.44616 28209 ft 411 kts 301°
2026-04-30 08:26 23.00909 87.42015 28600 ft 413 kts 301°
2026-04-30 08:27 23.02517 87.39421 28984 ft 416 kts 301°
2026-04-30 08:27 23.04063 87.36797 29332 ft 417 kts 300°
2026-04-30 08:27 23.05591 87.34102 29686 ft 418 kts 299°
2026-04-30 08:27 23.07104 87.31418 30045 ft 420 kts 299°
2026-04-30 08:28 23.08633 87.28702 30371 ft 421 kts 299°
2026-04-30 08:28 23.10164 87.25985 30710 ft 423 kts 299°
2026-04-30 08:28 23.11679 87.23290 31027 ft 424 kts 299°
2026-04-30 08:28 23.13231 87.20530 31319 ft 426 kts 299°
2026-04-30 08:29 23.14768 87.17793 31591 ft 427 kts 299°
2026-04-30 08:29 23.16309 87.15048 31898 ft 427 kts 299°
2026-04-30 08:29 23.17857 87.12291 32271 ft 425 kts 300°
2026-04-30 08:29 23.19375 87.09588 32659 ft 423 kts 300°
2026-04-30 08:30 23.20911 87.06850 33070 ft 420 kts 300°
2026-04-30 08:30 23.22425 87.04146 33438 ft 419 kts 300°
2026-04-30 08:30 23.23927 87.01461 33701 ft 419 kts 300°
2026-04-30 08:31 23.26950 86.96062 33723 ft 417 kts 300°
2026-04-30 08:31 23.29958 86.90685 33727 ft 418 kts 300°
2026-04-30 08:32 23.32961 86.85311 33721 ft 417 kts 300°
2026-04-30 08:32 23.35956 86.79940 33726 ft 416 kts 300°
2026-04-30 08:33 23.38961 86.74544 33732 ft 417 kts 300°
2026-04-30 08:33 23.41943 86.69179 33728 ft 415 kts 300°
2026-04-30 08:34 23.45060 86.63907 33734 ft 415 kts 306°
2026-04-30 08:34 23.48984 86.59272 33726 ft 417 kts 316°
2026-04-30 08:35 23.53660 86.55538 33734 ft 422 kts 326°
2026-04-30 08:35 23.58971 86.52786 33738 ft 424 kts 334°
2026-04-30 08:36 23.64514 86.50436 33746 ft 425 kts 335°
2026-04-30 08:36 23.70021 86.48120 33744 ft 425 kts 335°
2026-04-30 08:37 23.75397 86.45561 33757 ft 421 kts 328°
2026-04-30 08:37 23.80267 86.42069 33759 ft 416 kts 318°
2026-04-30 08:38 23.84440 86.37756 33768 ft 412 kts 310°
2026-04-30 08:38 23.87916 86.32763 33785 ft 413 kts 304°
2026-04-30 08:39 23.91172 86.27618 33777 ft 413 kts 303°
2026-04-30 08:39 23.94424 86.22461 33768 ft 411 kts 304°
2026-04-30 08:40 23.97654 86.17345 33776 ft 411 kts 303°
2026-04-30 08:40 24.00896 86.12193 33774 ft 412 kts 303°
2026-04-30 08:41 24.04162 86.07000 33771 ft 413 kts 303°
2026-04-30 08:41 24.07415 86.01829 33767 ft 413 kts 303°
2026-04-30 08:42 24.10649 85.96676 33765 ft 412 kts 303°
2026-04-30 08:42 24.13905 85.91476 33769 ft 414 kts 304°
2026-04-30 08:43 24.17169 85.86272 33773 ft 414 kts 303°
2026-04-30 08:43 24.20425 85.81067 33765 ft 418 kts 303°
2026-04-30 08:44 24.23683 85.75859 33764 ft 415 kts 303°
2026-04-30 08:44 24.26960 85.70598 33760 ft 418 kts 304°
2026-04-30 08:45 24.30246 85.65351 33750 ft 418 kts 303°
2026-04-30 08:45 24.33523 85.60089 33748 ft 418 kts 303°
2026-04-30 08:46 24.36792 85.54830 33749 ft 419 kts 304°
2026-04-30 08:46 24.40072 85.49567 33745 ft 419 kts 303°
2026-04-30 08:47 24.43386 85.44238 33733 ft 424 kts 302°
2026-04-30 08:47 24.46712 85.38865 33725 ft 425 kts 303°
2026-04-30 08:48 24.50030 85.33503 33715 ft 422 kts 303°
2026-04-30 08:48 24.53310 85.28198 33705 ft 422 kts 303°
2026-04-30 08:49 24.56607 85.22890 33378 ft 414 kts 302°
2026-04-30 08:49 24.58212 85.20296 33129 ft 415 kts 302°
2026-04-30 08:49 24.59840 85.17657 32884 ft 419 kts 301°
2026-04-30 08:49 24.61463 85.15028 32644 ft 422 kts 301°
2026-04-30 08:50 24.63118 85.12343 32423 ft 423 kts 301°
2026-04-30 08:50 24.64771 85.09652 32191 ft 424 kts 301°
2026-04-30 08:50 24.66423 85.06959 31960 ft 424 kts 301°
2026-04-30 08:50 24.68050 85.04314 31731 ft 423 kts 302°
2026-04-30 08:51 24.69716 85.01606 31484 ft 424 kts 302°
2026-04-30 08:51 24.71343 84.98963 31264 ft 424 kts 302°
2026-04-30 08:51 24.72950 84.96191 31028 ft 425 kts 298°
2026-04-30 08:51 24.74382 84.93392 30804 ft 423 kts 295°
2026-04-30 08:52 24.75673 84.90485 30558 ft 423 kts 292°
2026-04-30 08:52 24.76837 84.87541 30321 ft 421 kts 291°
2026-04-30 08:52 24.77977 84.84598 30106 ft 419 kts 291°
2026-04-30 08:52 24.79115 84.81649 29873 ft 416 kts 291°
2026-04-30 08:53 24.80234 84.78744 29629 ft 414 kts 290°
2026-04-30 08:53 24.81349 84.75845 29387 ft 411 kts 290°
2026-04-30 08:53 24.82454 84.72968 29149 ft 410 kts 290°
2026-04-30 08:53 24.83565 84.70081 28895 ft 407 kts 290°
2026-04-30 08:54 24.84662 84.67223 28645 ft 405 kts 290°
2026-04-30 08:54 24.85766 84.64349 28377 ft 404 kts 290°
2026-04-30 08:54 24.86843 84.61541 28109 ft 402 kts 290°
2026-04-30 08:54 24.87928 84.58710 27879 ft 401 kts 291°
2026-04-30 08:55 24.89019 84.55868 27625 ft 398 kts 290°
2026-04-30 08:55 24.90082 84.53092 27381 ft 396 kts 290°
2026-04-30 08:55 24.91149 84.50311 27119 ft 394 kts 290°
2026-04-30 08:55 24.92218 84.47514 26842 ft 392 kts 290°
2026-04-30 08:56 24.93275 84.44750 26510 ft 391 kts 291°
2026-04-30 08:56 24.94316 84.42028 26115 ft 388 kts 290°
2026-04-30 08:56 24.95356 84.39306 25668 ft 385 kts 290°
2026-04-30 08:56 24.96394 84.36586 25166 ft 381 kts 291°
2026-04-30 08:57 24.97409 84.33923 24650 ft 379 kts 290°
2026-04-30 08:57 24.98429 84.31250 24145 ft 374 kts 290°
2026-04-30 08:57 24.99428 84.28628 23624 ft 371 kts 290°
2026-04-30 08:57 25.00416 84.26033 23079 ft 368 kts 290°
2026-04-30 08:58 25.01401 84.23444 22540 ft 365 kts 290°
2026-04-30 08:58 25.02368 84.20902 22030 ft 362 kts 290°
2026-04-30 08:58 25.03340 84.18343 21529 ft 359 kts 290°
2026-04-30 08:58 25.04291 84.15838 21055 ft 355 kts 290°
2026-04-30 08:59 25.05248 84.13316 20568 ft 352 kts 290°
2026-04-30 08:59 25.06181 84.10857 20074 ft 349 kts 290°
2026-04-30 08:59 25.07114 84.08400 19615 ft 346 kts 290°
2026-04-30 08:59 25.08043 84.05948 19153 ft 343 kts 290°
2026-04-30 09:00 25.08955 84.03536 18678 ft 341 kts 290°
2026-04-30 09:00 25.09862 84.01140 18212 ft 338 kts 290°
2026-04-30 09:00 25.10766 83.98752 17743 ft 336 kts 290°
2026-04-30 09:00 25.11657 83.96389 17273 ft 336 kts 290°
2026-04-30 09:01 25.12553 83.94012 16739 ft 336 kts 291°
2026-04-30 09:01 25.13439 83.91667 16227 ft 336 kts 291°
2026-04-30 09:01 25.14344 83.89269 15690 ft 336 kts 291°
2026-04-30 09:01 25.15230 83.86919 15205 ft 335 kts 291°
2026-04-30 09:02 25.17022 83.82163 14207 ft 335 kts 291°
2026-04-30 09:02 25.17915 83.79793 13701 ft 334 kts 291°
2026-04-30 09:02 25.18789 83.77468 13225 ft 327 kts 292°
2026-04-30 09:03 25.19649 83.75179 12740 ft 325 kts 292°
2026-04-30 09:03 25.20520 83.72862 12212 ft 324 kts 292°
2026-04-30 09:03 25.21368 83.70606 11684 ft 319 kts 292°
2026-04-30 09:03 25.22209 83.68359 10856 ft 317 kts 293°
2026-04-30 09:04 25.23040 83.66147 9944 ft 316 kts 293°
2026-04-30 09:04 25.23877 83.63917 9093 ft 314 kts 293°
2026-04-30 09:04 25.24698 83.61724 8489 ft 304 kts 294°
2026-04-30 09:04 25.25483 83.59630 8145 ft 287 kts 294°
2026-04-30 09:05 25.26234 83.57626 7738 ft 276 kts 294°
2026-04-30 09:05 25.26958 83.55693 7145 ft 273 kts 294°
2026-04-30 09:05 25.27677 83.53773 6544 ft 273 kts 294°
2026-04-30 09:05 25.28397 83.51852 5933 ft 271 kts 294°
2026-04-30 09:06 25.29106 83.49957 5333 ft 269 kts 294°
2026-04-30 09:06 25.29820 83.48043 4771 ft 266 kts 294°
2026-04-30 09:06 25.30528 83.46149 4350 ft 264 kts 294°
2026-04-30 09:06 25.31214 83.44308 4026 ft 261 kts 294°
2026-04-30 09:07 25.31904 83.42461 3695 ft 258 kts 294°
2026-04-30 09:07 25.32581 83.40646 3394 ft 254 kts 294°
2026-04-30 09:07 25.33256 83.38831 3063 ft 252 kts 295°
2026-04-30 09:07 25.33914 83.37057 2695 ft 252 kts 295°
2026-04-30 09:08 25.34577 83.35268 2353 ft 250 kts 296°
2026-04-30 09:08 25.35235 83.33508 2187 ft 245 kts 295°
2026-04-30 09:08 25.35877 83.31790 2173 ft 232 kts 295°
2026-04-30 09:08 25.36469 83.30192 2167 ft 217 kts 295°
2026-04-30 09:09 25.37020 83.28702 2163 ft 202 kts 295°
2026-04-30 09:09 25.37537 83.27317 2172 ft 194 kts 295°
2026-04-30 09:09 25.38058 83.25924 2181 ft 196 kts 295°
2026-04-30 09:09 25.38568 83.24559 2179 ft 189 kts 294°
2026-04-30 09:10 25.39053 83.23251 2180 ft 175 kts 294°
2026-04-30 09:10 25.39501 83.22033 2178 ft 172 kts 295°
2026-04-30 09:10 25.39962 83.20787 2188 ft 174 kts 295°
2026-04-30 09:10 25.40423 83.19550 2184 ft 175 kts 295°
2026-04-30 09:11 25.40890 83.18291 2186 ft 177 kts 295°
2026-04-30 09:11 25.41349 83.17053 2183 ft 175 kts 295°
2026-04-30 09:11 25.41812 83.15807 2190 ft 175 kts 295°
2026-04-30 09:11 25.42274 83.14557 2182 ft 176 kts 296°
2026-04-30 09:12 25.42743 83.13291 2194 ft 177 kts 296°
2026-04-30 09:12 25.43215 83.12042 2204 ft 174 kts 294°
2026-04-30 09:12 25.43636 83.10807 2194 ft 171 kts 289°
2026-04-30 09:12 25.43907 83.09504 2197 ft 174 kts 283°
2026-04-30 09:13 25.44068 83.08180 2197 ft 176 kts 279°
2026-04-30 09:13 25.44185 83.06821 2202 ft 175 kts 278°
2026-04-30 09:13 25.44273 83.05476 2199 ft 178 kts 278°
2026-04-30 09:13 25.44346 83.04107 2209 ft 178 kts 277°
2026-04-30 09:14 25.44411 83.02743 2205 ft 177 kts 277°
2026-04-30 09:14 25.44474 83.01405 2211 ft 174 kts 276°
2026-04-30 09:14 25.44536 83.00064 2210 ft 174 kts 276°
2026-04-30 09:14 25.44600 82.98715 2134 ft 175 kts 276°
2026-04-30 09:15 25.44662 82.97398 1923 ft 170 kts 276°
2026-04-30 09:15 25.44724 82.96111 1763 ft 162 kts 275°
2026-04-30 09:15 25.44781 82.94925 1565 ft 150 kts 275°
2026-04-30 09:15 25.44834 82.93803 1337 ft 143 kts 277°
2026-04-30 09:16 25.44889 82.92683 1158 ft 147 kts 277°
2026-04-30 09:16 25.44945 82.91550 974 ft 148 kts 277°
2026-04-30 09:16 25.44999 82.90427 808 ft 143 kts 276°
2026-04-30 09:16 25.45032 82.89335 601 ft 140 kts 276°
2026-04-30 09:17 25.45099 82.88281 432 ft 135 kts 276°
2026-04-30 09:17 25.45154 82.87267 289 ft 126 kts 278°
2026-04-30 09:17 25.45206 82.86405 280 ft 90 kts 274°
2026-04-30 09:17 25.45225 82.85902 282 ft 41 kts 275°
2026-04-30 09:18 25.45237 82.85702 281 ft 22 kts 275°
2026-04-30 09:18 25.45242 82.85520 279 ft 24 kts 259°
2026-04-30 09:18 25.45160 82.85399 279 ft 23 kts 191°
2026-04-30 09:18 25.45074 82.85499 281 ft 21 kts 99°
2026-04-30 09:19 25.45011 82.85541 282 ft 9 kts 186°
2026-04-30 09:19 25.44964 82.85538 282 ft 0 kts 182°